TimeEDT,TemperatureF,Dew PointF,Humidity,Sea Level PressureIn,VisibilityMPH,Wind Direction,Wind SpeedMPH,Gust SpeedMPH,PrecipitationIn,Events,Conditions,WindDirDegrees,DateUTC
12:53 AM,45.0,32.0,60,30.02,10.0,ENE,4.6,-,N/A,,Clear,70,2013-04-08 04:53:00
1:53 AM,43.0,32.0,65,30.01,10.0,ENE,5.8,-,N/A,,Clear,70,2013-04-08 05:53:00
2:53 AM,43.0,34.0,71,30.01,10.0,East,9.2,-,N/A,,Clear,90,2013-04-08 06:53:00
3:53 AM,42.1,34.0,73,30.00,10.0,East,8.1,-,N/A,,Clear,80,2013-04-08 07:53:00
4:53 AM,41.0,34.0,76,29.97,10.0,ENE,10.4,-,N/A,,Clear,70,2013-04-08 08:53:00
5:53 AM,41.0,34.0,76,29.95,9.0,ENE,8.1,-,N/A,,Partly Cloudy,70,2013-04-08 09:53:00
6:53 AM,39.9,34.0,79,29.95,8.0,East,9.2,-,N/A,,Clear,90,2013-04-08 10:53:00
7:53 AM,41.0,34.0,76,29.95,7.0,East,8.1,-,N/A,,Clear,100,2013-04-08 11:53:00
8:53 AM,43.0,35.1,74,29.93,7.0,ESE,9.2,-,N/A,,Overcast,110,2013-04-08 12:53:00
9:53 AM,45.0,37.9,76,29.90,6.0,East,4.6,-,0.00,,Haze,90,2013-04-08 13:53:00
10:53 AM,51.1,42.1,71,29.86,7.0,ESE,4.6,-,N/A,,Overcast,110,2013-04-08 14:53:00
11:53 AM,64.9,48.9,56,29.81,10.0,South,10.4,17.3,N/A,,Mostly Cloudy,170,2013-04-08 15:53:00
12:53 PM,63.0,52.0,67,29.80,8.0,South,13.8,27.6,0.01,Rain,Light Rain,190,2013-04-08 16:53:00
1:53 PM,68.0,54.0,61,29.77,10.0,SSW,16.1,23.0,0.00,,Mostly Cloudy,200,2013-04-08 17:53:00
2:53 PM,68.0,52.0,56,29.77,10.0,SW,17.3,32.2,N/A,,Overcast,230,2013-04-08 18:53:00
3:53 PM,71.1,53.1,53,29.75,10.0,SW,24.2,35.7,N/A,,Overcast,220,2013-04-08 19:53:00
4:53 PM,71.1,53.1,53,29.76,10.0,SW,21.9,36.8,N/A,,Overcast,220,2013-04-08 20:53:00
5:53 PM,73.0,51.1,46,29.77,10.0,WSW,16.1,28.8,N/A,,Mostly Cloudy,240,2013-04-08 21:53:00
6:53 PM,73.0,50.0,44,29.80,10.0,WSW,12.7,21.9,N/A,,Partly Cloudy,250,2013-04-08 22:53:00
7:53 PM,71.1,50.0,47,29.83,10.0,Variable,5.8,-,N/A,,Partly Cloudy,0,2013-04-08 23:53:00
8:53 PM,62.1,48.9,62,29.89,10.0,NW,11.5,-,N/A,,Clear,320,2013-04-09 00:53:00
9:53 PM,57.9,45.0,62,29.94,10.0,Variable,4.6,-,N/A,,Clear,0,2013-04-09 01:53:00
10:53 PM,57.0,44.1,62,29.97,10.0,NW,4.6,-,N/A,,Overcast,310,2013-04-09 02:53:00
11:53 PM,53.1,43.0,69,29.99,10.0,Calm,Calm,-,N/A,,Clear,0,2013-04-09 03:53:00